GFSNGP_sfc_temp_000.txt.gz
Temp
80 83 83 82 82 83 79 80 74 76 74 68 66 69 69 67 83 81 79 82 81 81 81 83 84 82 82 85 85 83 82 80 78 76 80 77 76 75 74 74 73 71 70 70
74 82 83 79 83 83 83 83 82 83 62 69 67 70 69 70 78 79 79 78 81 81 82 82 83 84 84 82 82 84 83 80 79 80 76 75 76 75 75 74 72 71 71 71
67 78 79 72 80 81 83 86 84 73 67 67 68 69 66 75 78 79 78 79 78 80 80 80 81 81 81 80 83 80 77 82 77 79 76 76 76 76 74 71 70 69 65 65
68 73 60 76 81 79 81 86 88 75 72 66 63 71 73 83 79 77 78 78 79 79 77 75 76 75 74 76 76 77 77 76 76 77 77 73 73 70 69 70 69 67 66 65
64 66 72 75 75 73 79 80 89 83 74 70 74 80 76 79 80 79 77 75 73 73 71 67 66 67 69 70 73 76 77 76 73 71 71 68 69 68 67 67 65 64 64 62
65 62 59 75 84 88 86 71 86 86 80 74 75 67 68 77 77 76 74 71 67 65 64 62 61 63 62 65 65 66 65 68 65 66 62 60 62 61 62 64 63 61 59 58
67 64 71 82 85 88 67 69 82 78 83 76 73 72 73 77 75 74 71 65 64 62 59 58 58 57 54 55 54 56 58 60 59 57 56 56 55 55 56 56 55 54 54 53
68 64 60 85 84 74 74 80 80 74 71 67 67 71 74 74 72 69 65 64 62 58 56 56 56 53 52 51 53 55 55 55 54 53 54 53 52 51 51 50 48 47 47 47
66 64 75 80 77 81 81 78 78 74 74 73 72 72 73 69 65 64 61 60 59 57 55 55 54 53 51 51 52 52 51 51 51 52 53 53 51 50 48 49 47 46 46 46
65 71 66 76 79 81 82 79 78 79 77 76 73 73 68 64 64 61 60 57 57 56 54 53 54 53 53 53 53 53 51 51 52 52 53 54 54 54 50 50 48 47 46 46
61 63 61 71 80 79 79 80 79 80 78 76 74 70 65 61 62 61 58 57 56 55 56 55 55 55 56 56 55 54 53 53 52 53 52 51 52 52 51 49 50 48 48 49
64 63 61 62 76 79 76 76 77 75 73 74 73 69 65 62 61 59 57 57 56 56 56 57 58 57 59 61 61 59 57 57 54 54 54 54 53 49 46 46 44 42 43 51
64 70 67 66 64 61 74 74 74 73 72 69 70 68 64 61 60 57 58 57 57 58 59 60 60 60 62 63 63 60 61 62 63 62 61 59 57 55 51 48 45 43 42 43
67 68 66 69 63 68 72 74 71 74 73 71 67 65 63 61 60 59 59 60 61 62 61 61 62 62 65 66 65 63 63 57 64 63 63 64 62 60 59 57 55 53 45 48
69 67 67 65 72 74 74 73 69 69 69 68 67 65 64 61 59 60 62 64 65 65 64 64 65 64 68 68 65 64 66 68 68 69 69 67 68 67 66 63 60 56 55 48
71 60 63 57 61 71 73 71 69 67 69 69 66 64 63 62 62 60 60 61 60 62 65 66 66 68 69 69 67 70 69 62 66 69 69 69 69 68 67 65 64 60 58 59
72 71 73 69 67 71 69 69 69 66 66 65 66 65 65 62 60 60 60 62 63 66 69 69 69 72 73 72 71 72 72 70 64 71 70 69 68 67 66 65 65 62 60 56
77 77 78 74 72 70 69 69 68 67 66 65 65 66 64 63 60 61 62 62 64 69 71 71 72 73 72 69 71 70 72 72 70 70 69 67 66 65 64 64 65 63 60 58
77 76 77 75 73 72 71 67 67 69 68 64 62 60 61 60 60 60 61 63 66 66 67 69 65 70 70 66 68 73 70 71 66 67 66 59 65 64 63 63 65 64 64 61
78 79 79 74 75 72 68 65 67 67 69 65 60 60 59 60 62 61 63 62 61 60 65 68 68 66 68 68 67 72 71 72 71 66 65 67 65 62 64 58 63 65 65 64
78 75 72 71 71 71 69 65 65 65 65 62 59 58 59 61 63 61 59 59 60 64 65 62 67 70 71 70 69 73 72 71 71 68 66 67 64 65 66 66 65 65 65 64
73 73 71 69 65 64 61 64 61 60 61 59 58 57 56 57 59 60 63 60 60 54 65 69 67 60 64 60 71 71 72 71 70 70 70 69 67 67 67 66 65 66 65 65
70 66 63 62 59 57 58 57 58 58 56 56 56 56 56 56 58 59 56 58 61 58 62 64 55 58 56 66 68 70 71 70 68 69 69 69 68 68 67 67 66 66 65 64
61 61 59 57 56 54 51 52 53 54 54 54 55 56 56 55 60 60 58 53 51 56 57 56 58 55 50 65 67 69 69 68 68 68 69 55 69 69 68 67 65 65 65 60
56 55 54 54 52 50 50 51 51 51 52 53 56 58 59 63 60 60 58 57 52 55 61 51 53 53 61 65 68 69 68 68 68 69 69 68 68 67 68 67 66 65 65 65
53 53 52 52 51 51 51 51 51 52 53 54 56 60 60 59 59 56 55 52 55 57 64 63 64 63 64 67 69 69 68 68 67 68 66 67 67 67 67 67 66 65 64 64
51 50 51 52 53 54 54 53 53 55 58 62 59 57 58 61 60 60 56 58 60 66 67 68 68 63 67 68 68 68 69 69 59 68 67 66 66 66 66 66 66 65 66 65

GFSNGP_sfc_temp_006.txt.gz
Temp
61 66 68 67 68 68 59 61 58 59 59 62 60 60 61 61 60 65 65 66 68 67 69 69 72 70 70 70 69 69 69 68 67 67 67 67 66 66 65 65 64 64 63 63
57 67 69 66 70 69 74 74 64 61 56 60 60 62 62 61 63 64 64 65 70 66 65 63 64 64 66 65 66 68 73 70 72 70 69 66 65 64 64 63 61 59 57 57
49 60 63 56 65 69 69 71 69 58 62 63 59 61 62 61 65 68 65 65 64 61 61 59 59 60 61 63 65 66 71 69 71 71 68 65 64 62 60 59 57 55 53 53
49 52 43 60 68 71 69 68 68 64 62 63 61 62 63 64 61 64 66 63 60 59 58 57 57 58 60 63 63 65 66 67 67 66 66 64 62 59 57 57 58 57 55 52
49 46 55 64 68 67 63 63 68 63 64 64 65 64 59 64 65 62 61 59 58 57 56 56 57 57 56 57 59 61 63 66 67 65 64 61 58 56 53 52 50 48 51 54
48 45 45 58 70 76 70 55 69 66 64 65 66 56 57 59 59 58 58 57 56 57 57 53 55 56 55 54 54 55 57 60 66 65 63 58 56 54 53 51 50 50 50 52
48 47 54 63 68 73 56 56 65 66 64 63 59 59 59 59 57 58 56 56 57 56 54 53 54 54 52 51 51 53 56 56 56 56 55 54 52 52 51 49 48 48 49 50
47 45 46 62 66 59 58 61 64 62 60 60 60 59 58 57 56 56 55 56 56 53 52 53 53 52 50 50 52 53 52 52 52 52 53 52 50 50 50 50 49 48 48 48
50 48 57 59 59 61 64 60 60 60 61 63 60 57 56 54 54 54 55 55 54 53 52 52 52 52 50 50 52 52 52 51 51 51 51 50 49 49 48 49 48 47 47 46
50 54 55 58 60 63 63 63 64 63 62 61 57 56 54 54 53 54 55 54 54 52 51 50 52 52 52 52 53 52 50 49 49 49 48 49 49 49 48 48 46 47 46 46
50 54 56 58 60 60 62 63 64 65 63 60 58 55 54 54 54 54 55 54 54 52 51 51 52 52 53 53 52 50 49 48 47 46 47 45 46 45 45 42 46 47 45 47
47 55 54 55 58 62 61 61 63 63 60 60 59 55 55 54 56 55 55 55 53 53 53 53 53 54 54 55 53 50 49 50 49 48 47 46 46 43 46 44 44 43 43 42
54 59 58 60 61 63 62 62 63 63 61 58 57 56 55 55 56 55 56 56 55 55 55 55 55 55 56 51 48 47 47 46 46 46 43 41 40 42 41 43 43 41 41 41
58 58 57 60 58 61 64 64 61 61 59 58 57 56 56 56 56 57 56 57 58 57 54 52 51 50 51 50 49 47 46 49 45 45 44 43 44 48 47 44 38 38 42 42
59 60 57 57 60 61 62 62 58 57 57 57 59 57 58 56 56 57 59 59 59 58 55 53 52 51 52 52 50 48 49 48 46 45 44 44 42 42 42 41 40 39 39 42
59 58 59 57 56 58 59 59 56 55 56 59 59 59 59 59 59 58 59 58 54 55 54 54 54 55 55 53 51 50 50 53 52 48 46 45 44 44 43 42 41 41 41 41
55 52 54 53 56 56 58 58 59 58 58 58 59 59 59 59 57 57 59 60 59 58 56 54 56 55 57 55 52 52 51 52 54 50 51 50 49 48 48 46 43 42 42 43
60 59 58 56 57 56 56 60 58 59 57 58 58 59 58 58 56 58 59 60 59 55 58 59 60 59 58 57 54 54 53 55 54 53 51 50 50 48 50 46 46 45 42 43
62 61 63 58 57 56 56 56 58 59 59 59 58 56 58 57 59 58 58 60 59 55 57 61 61 61 60 61 59 60 56 59 56 53 53 52 52 50 47 47 45 45 44 45
61 62 65 58 58 59 58 56 57 58 61 59 58 57 56 59 58 58 59 56 57 56 57 59 59 57 56 60 61 59 59 59 57 56 53 52 50 48 48 47 48 47 46 45
61 62 60 59 60 59 59 59 58 57 59 59 57 57 58 58 58 56 55 53 56 59 57 57 57 56 56 57 56 56 55 55 55 55 53 51 49 49 49 49 51 49 48 47
57 59 58 57 57 56 57 56 57 57 56 56 57 56 56 55 55 54 55 54 55 54 55 54 54 57 56 56 54 53 55 55 53 53 52 51 51 50 51 49 48 48 50 46
54 55 56 58 56 54 55 54 54 55 53 53 54 54 54 53 54 52 50 53 54 53 55 53 52 54 55 54 52 53 55 54 52 52 52 52 53 54 52 52 51 50 47 46
52 52 52 53 54 53 51 53 54 55 55 54 54 54 54 52 51 52 51 50 52 53 54 54 55 54 54 55 52 51 51 53 52 52 52 48 50 50 51 50 48 47 47 46
51 50 51 51 50 50 51 52 53 53 54 53 54 54 54 54 52 50 51 52 51 54 55 52 55 53 54 52 51 52 51 51 52 52 51 50 49 49 53 52 51 49 47 47
51 50 51 51 51 51 51 52 51 52 53 52 53 53 52 51 51 51 52 52 53 52 54 55 55 55 52 51 52 53 52 51 50 51 50 49 49 49 49 48 47 47 47 47
50 49 51 50 51 52 52 51 51 51 52 53 52 52 52 52 52 52 52 54 54 54 54 53 53 52 52 52 52 51 50 50 48 50 49 49 48 48 48 48 48 47 47 47

GFSNGP_sfc_temp_009.txt.gz
Temp
56 63 65 65 65 63 59 57 55 57 57 59 60 58 59 61 63 65 64 64 65 66 66 66 65 64 66 66 66 67 67 66 66 65 65 65 64 63 63 62 61 60 60 61
54 64 64 63 66 66 66 65 59 58 57 59 58 59 59 60 62 63 63 66 67 64 63 61 61 61 63 63 64 66 67 67 70 66 66 65 63 62 61 58 56 57 57 60
47 56 59 54 62 65 64 67 66 59 61 57 58 59 60 60 61 62 64 63 62 61 60 58 58 59 59 62 63 64 66 68 69 66 64 64 62 60 57 55 54 53 55 57
48 50 42 58 65 68 66 65 65 63 59 61 60 60 61 61 60 62 62 61 60 59 57 56 56 56 57 61 61 61 63 65 66 65 64 62 60 57 55 53 52 50 50 51
47 45 52 60 64 63 60 60 63 59 60 61 61 61 59 61 62 60 60 58 57 57 55 54 54 55 55 56 60 61 60 64 66 64 63 60 55 52 50 49 48 48 52 55
46 44 44 54 64 68 66 54 64 62 60 61 62 55 56 60 60 58 58 57 56 55 53 53 52 52 55 54 55 54 56 57 65 64 60 56 54 51 50 51 48 49 50 53
46 45 52 58 61 64 52 54 61 63 61 61 58 57 58 58 57 57 56 55 56 55 53 53 51 51 52 52 51 53 54 55 55 57 56 54 53 52 51 49 48 48 48 51
44 44 45 60 62 59 56 59 60 61 59 57 58 58 57 56 55 55 55 55 55 53 52 52 53 52 50 50 52 52 52 51 51 53 53 52 50 50 51 50 49 49 48 48
47 47 55 59 60 59 61 59 57 59 59 59 57 56 56 55 55 55 54 54 54 52 51 52 52 52 50 51 52 52 51 50 50 51 51 51 50 49 49 50 49 48 48 47
48 53 57 58 59 61 61 60 61 62 61 59 56 56 54 54 54 54 54 53 53 52 50 50 52 52 52 51 51 50 48 48 48 48 48 48 48 49 48 48 47 47 47 46
48 51 54 58 59 58 61 62 62 61 60 58 56 55 54 54 54 54 53 53 53 52 51 51 52 51 52 52 52 49 48 47 47 46 45 44 43 44 46 46 48 47 46 47
47 53 53 54 58 61 60 60 59 58 57 58 57 55 55 54 55 54 53 53 50 52 52 51 51 49 51 53 53 52 50 50 49 49 49 48 47 45 46 45 43 42 42 45
54 56 56 58 59 61 59 62 61 59 57 55 55 55 54 53 54 55 54 51 51 53 53 54 53 52 52 49 48 45 43 43 44 44 45 43 40 41 40 41 43 41 40 41
58 58 55 57 56 62 62 61 59 59 57 58 55 54 53 53 54 56 55 55 56 55 55 55 54 51 47 47 45 44 43 47 41 41 41 40 41 41 40 39 39 38 41 41
60 58 57 54 56 58 59 60 56 54 55 54 55 54 55 54 55 56 57 57 57 52 50 49 48 47 48 47 46 44 44 43 42 41 40 41 40 40 39 39 39 38 38 41
57 57 57 56 57 57 57 57 55 53 54 54 53 53 56 57 57 57 58 58 53 50 50 50 49 50 50 49 47 46 45 50 46 43 42 41 41 41 40 39 40 41 41 41
53 50 53 53 55 55 55 56 56 55 55 55 55 54 55 54 54 54 58 54 53 52 52 51 51 52 51 50 50 48 47 47 50 45 44 43 44 44 43 41 42 41 42 42
58 59 57 56 55 55 55 55 55 55 54 55 55 55 56 54 53 54 52 53 53 52 52 53 53 53 53 52 50 50 50 48 49 47 47 48 48 48 44 44 43 43 42 43
57 58 59 57 56 55 55 54 55 56 55 55 55 53 55 54 53 53 54 52 51 51 53 58 59 58 54 56 54 52 52 53 51 50 48 49 49 48 48 47 47 47 45 44
56 59 60 56 56 56 55 56 56 55 56 55 53 52 52 53 53 57 54 52 55 56 55 56 56 54 55 56 60 55 58 55 53 50 50 48 49 47 47 46 48 47 45 45
53 58 57 55 55 57 58 57 56 55 55 55 53 52 53 55 57 55 52 51 54 56 56 57 55 56 57 57 57 56 54 53 52 51 50 49 48 48 48 49 49 48 47 46
52 55 54 55 53 52 53 54 54 54 54 53 57 55 55 54 54 53 55 54 52 52 52 52 53 56 56 55 53 52 53 52 50 49 49 50 50 48 48 48 47 50 49 46
51 54 55 55 53 52 53 53 54 54 53 52 55 55 54 53 54 52 49 51 51 51 53 53 53 54 54 54 55 52 53 53 50 51 51 51 51 51 52 50 50 49 48 48
52 53 52 53 55 53 51 52 53 53 53 53 54 54 54 52 51 52 51 49 49 51 53 53 53 53 53 54 51 52 51 50 50 50 50 47 50 49 48 50 51 51 50 46
52 52 53 53 52 52 53 53 53 53 53 53 53 53 53 53 52 50 51 51 49 51 53 50 51 52 54 54 54 53 51 49 49 48 49 49 49 49 48 47 46 47 47 47
51 51 51 52 52 52 53 53 52 52 52 52 52 52 52 52 51 51 51 50 51 50 53 54 54 55 55 54 52 51 50 49 49 49 48 48 47 47 48 48 51 51 50 49
50 49 51 51 52 52 53 52 52 51 52 52 52 52 52 51 50 50 49 51 52 53 53 54 54 53 54 52 50 50 50 49 48 49 48 47 46 46 46 46 46 46 45 44

GFSNGP_sfc_temp_012.txt.gz
Temp
53 59 62 62 62 61 57 56 54 56 56 60 60 59 59 60 63 64 65 65 65 65 64 64 65 65 66 67 67 68 67 68 67 66 67 66 65 65 63 62 62 62 63 63
52 61 63 62 65 63 63 61 58 58 57 59 59 59 59 60 63 63 64 65 65 64 64 63 63 63 64 65 65 66 68 68 68 66 66 65 64 63 61 60 59 62 62 62
47 55 57 53 61 63 63 64 63 57 62 58 56 59 59 59 63 63 63 63 63 62 61 60 60 61 62 63 64 65 66 69 67 67 65 64 62 61 58 57 57 58 59 61
46 48 42 57 62 64 65 64 63 62 60 60 59 58 59 62 61 62 61 61 60 59 57 57 57 58 59 62 62 63 63 66 67 66 65 63 60 57 56 55 55 55 56 58
46 44 52 59 61 60 58 60 63 60 58 59 60 62 58 61 61 61 60 59 58 57 57 55 54 56 58 58 61 61 59 61 66 65 63 60 57 54 54 54 53 54 56 56
44 44 43 54 62 64 61 54 62 61 58 59 62 55 55 59 59 57 57 57 55 55 56 53 54 57 56 55 56 55 56 57 63 64 62 57 55 53 53 53 53 54 55 55
45 45 51 58 60 61 53 55 60 61 60 59 55 56 57 57 56 56 56 55 55 54 53 53 54 55 53 53 52 53 54 54 55 57 56 55 52 53 52 52 51 51 51 52
43 43 45 58 61 57 58 57 61 60 57 57 57 57 56 55 55 55 54 54 54 53 52 53 54 53 51 51 52 52 52 52 52 52 53 52 51 52 52 52 50 50 48 48
46 47 54 60 59 60 59 58 59 59 58 59 56 56 56 54 54 54 54 54 54 53 52 52 52 53 51 52 52 52 51 50 50 51 51 51 51 50 50 50 49 48 48 48
48 52 56 59 59 60 60 60 61 61 59 59 56 56 54 54 54 53 54 53 53 52 51 51 52 52 51 51 51 50 48 48 49 49 48 49 50 50 49 48 48 48 47 48
48 53 54 57 58 58 60 60 59 60 60 59 57 55 56 54 54 54 54 54 53 52 51 51 51 51 52 52 52 50 49 48 47 46 45 44 43 46 46 46 48 48 48 49
47 53 53 54 58 60 59 59 58 57 56 57 57 56 55 54 54 54 53 52 52 52 52 51 52 50 50 51 52 50 50 50 50 48 47 45 45 43 45 44 43 42 43 46
52 56 55 57 59 61 59 59 59 57 56 54 55 57 56 54 53 54 52 51 53 52 52 53 52 49 49 49 49 48 47 47 49 49 48 46 47 47 45 45 43 41 40 41
56 56 57 60 57 61 60 59 58 57 56 56 55 55 56 55 54 54 54 52 55 55 54 55 53 50 49 49 48 47 47 46 46 46 46 46 46 46 47 47 46 46 43 43
60 60 58 58 59 59 58 57 55 54 54 54 55 54 54 54 54 56 56 57 57 56 54 52 50 48 49 49 48 47 47 47 46 46 46 46 46 47 47 46 46 45 47 46
58 59 59 56 56 56 57 56 54 53 54 54 53 54 54 55 54 55 55 55 52 51 51 50 49 49 50 50 49 49 49 49 47 47 48 48 48 47 47 46 46 47 48 49
52 51 53 54 55 55 56 56 56 55 54 54 54 54 55 54 54 56 57 57 53 52 52 51 51 52 52 52 51 51 51 51 50 50 50 49 49 49 48 47 48 48 49 48
54 56 56 56 56 56 55 56 56 55 55 55 55 55 54 54 54 56 56 54 53 53 53 54 54 54 54 53 52 52 52 52 52 51 50 49 50 50 49 49 49 49 49 49
54 53 56 57 56 56 56 55 56 56 55 55 55 54 55 54 54 54 53 53 53 52 53 55 57 56 54 55 54 54 55 54 54 53 52 50 51 52 51 51 51 51 51 51
53 54 55 57 57 56 55 56 56 56 56 56 54 54 53 53 55 54 54 52 53 55 56 56 58 56 56 56 59 57 57 57 56 55 53 53 52 52 52 48 53 52 51 51
51 53 54 56 55 56 56 56 56 55 55 55 55 54 53 53 55 54 53 53 53 57 57 57 57 57 57 58 59 59 59 58 57 56 55 54 54 53 53 53 52 52 52 52
53 51 53 54 54 54 54 55 55 55 55 54 55 54 54 54 54 53 54 54 52 52 54 54 55 56 56 56 57 58 58 57 56 55 53 53 53 54 54 53 52 53 53 53
52 51 52 52 52 51 52 52 53 54 54 54 54 55 54 54 54 52 50 52 52 50 51 51 52 54 54 57 57 57 56 57 56 55 54 54 55 55 55 55 54 54 53 53
53 51 51 51 52 52 51 52 53 53 54 55 55 55 54 51 50 50 49 48 48 50 50 53 52 51 52 55 56 56 56 55 54 55 55 48 56 56 54 54 54 55 55 52
53 52 52 52 52 52 52 52 52 53 53 53 53 53 53 53 52 51 51 49 48 50 52 50 50 51 56 56 55 55 54 52 54 54 54 54 54 55 55 55 54 53 53 54
51 51 52 53 52 53 53 53 52 52 52 51 51 52 52 52 52 51 50 50 50 50 52 53 54 54 54 54 54 54 54 55 55 55 54 55 54 53 53 54 54 55 54 54
51 49 52 52 52 53 53 52 52 51 52 52 51 52 52 51 51 51 50 51 51 52 52 52 53 53 56 56 55 55 55 56 51 55 54 54 53 53 54 54 55 55 56 55

GFSNGP_sfc_temp_015.txt.gz
Temp
70 70 72 74 73 70 70 72 71 72 70 79 78 74 74 76 73 71 71 73 73 73 73 74 75 76 77 79 78 79 77 78 77 77 76 74 70 71 72 71 71 71 72 71
67 69 71 71 75 73 73 71 71 72 72 79 71 71 71 72 71 71 70 72 73 73 73 74 74 75 75 76 77 77 77 78 78 76 75 73 67 71 71 70 69 70 69 70
64 66 69 64 72 73 75 76 77 71 77 74 72 70 71 71 72 72 73 71 71 70 68 67 70 69 68 68 71 74 75 77 76 76 74 70 67 70 69 67 66 65 66 68
65 64 56 71 74 76 75 76 77 75 74 72 69 68 71 73 72 72 71 67 65 63 64 65 66 67 67 68 70 68 67 72 75 74 72 67 69 68 67 68 65 63 62 62
60 62 65 69 71 71 73 73 75 74 69 69 69 71 66 68 73 70 69 64 62 64 63 61 64 63 66 68 69 67 65 65 68 70 68 66 66 65 66 66 65 63 61 61
59 58 55 70 70 70 70 69 73 73 70 70 71 70 69 62 63 61 60 60 60 62 61 60 59 61 62 62 64 61 61 60 61 67 65 64 63 62 64 66 65 65 60 60
62 60 65 69 68 70 64 68 72 72 72 71 70 66 64 60 59 59 59 59 61 62 60 58 59 60 58 57 55 56 57 57 57 58 58 58 59 62 62 62 61 56 57 58
60 58 56 66 69 66 65 68 69 70 70 67 61 58 58 58 57 57 57 59 61 58 57 57 58 59 55 54 55 55 55 55 54 53 53 53 54 55 55 59 58 56 54 50
61 65 62 66 66 67 65 63 69 69 69 67 60 58 57 56 56 57 57 59 61 58 56 56 57 58 55 54 55 54 53 52 52 52 52 52 52 52 51 53 52 51 49 49
59 63 63 65 67 67 67 67 70 71 70 67 61 58 56 56 56 58 59 59 61 60 57 54 56 56 55 54 53 53 51 51 52 51 51 51 51 52 52 50 49 48 49 49
60 64 64 67 66 66 66 66 67 69 68 64 60 57 57 57 59 60 59 60 61 58 56 54 55 55 57 55 56 53 53 52 51 50 49 46 44 47 48 49 50 49 50 52
61 63 63 65 65 66 66 65 66 66 62 62 61 60 60 61 61 61 61 60 57 56 56 55 56 57 57 56 56 57 56 55 54 52 50 49 48 45 45 43 42 42 43 50
61 64 65 66 66 67 66 66 66 66 63 60 61 61 63 61 62 59 61 58 57 56 58 59 59 58 59 59 60 59 59 59 57 57 56 51 55 53 48 46 43 41 41 41
65 64 64 66 64 67 68 66 64 66 66 63 61 63 64 63 61 62 60 58 59 60 61 61 60 58 59 60 59 58 57 52 61 61 61 61 60 60 61 59 57 56 44 47
67 67 66 67 67 66 65 66 66 64 63 62 63 61 61 61 62 62 62 62 62 61 61 61 59 57 60 61 59 59 61 62 62 61 62 59 61 61 61 60 59 57 58 51
65 67 67 66 62 64 65 61 64 63 64 63 62 62 62 63 63 62 63 63 61 61 61 61 59 59 60 61 61 61 60 53 58 62 62 62 62 62 61 60 59 59 60 61
62 63 66 66 66 64 65 67 67 66 66 65 64 64 63 63 63 63 62 63 63 62 61 61 60 61 62 62 63 64 65 62 56 65 65 65 64 64 63 62 61 61 61 59
62 63 64 65 67 67 67 67 68 67 66 67 66 64 63 62 62 62 62 63 62 62 63 63 62 62 63 63 64 65 66 66 66 67 66 64 65 65 63 63 62 62 62 60
62 62 64 65 66 68 68 68 67 67 68 66 65 63 64 64 64 61 61 62 61 60 62 64 59 61 64 63 63 68 67 67 66 66 65 59 62 64 63 62 63 63 63 63
60 63 64 64 66 68 67 68 67 65 66 66 66 64 62 63 63 59 63 62 64 67 65 65 64 66 66 64 59 69 68 68 68 68 67 66 65 65 65 55 63 64 64 63
59 60 61 62 66 68 67 68 66 64 64 65 64 63 63 63 61 63 62 62 62 64 65 61 65 69 68 66 65 67 66 66 68 69 68 68 67 65 65 65 64 63 64 64
58 57 59 63 64 63 64 65 65 64 63 64 65 64 63 62 62 62 64 62 60 53 60 61 64 61 63 59 69 69 71 69 65 69 68 66 64 63 63 63 63 65 65 65
56 57 60 62 57 57 59 61 61 62 61 59 59 62 62 64 63 61 58 59 63 55 57 57 54 53 54 62 69 69 68 64 63 65 62 62 63 62 64 64 64 65 65 65
55 57 56 56 58 57 54 56 58 59 59 60 60 60 57 53 53 56 55 51 49 54 52 52 52 51 52 60 63 60 62 63 60 59 64 50 67 67 66 65 65 66 66 63
54 55 57 56 54 53 54 55 55 55 54 54 54 55 56 56 53 50 50 49 48 50 51 49 49 50 55 58 61 59 55 56 58 61 65 66 66 66 66 66 66 66 65 66
54 53 54 55 54 54 54 53 52 52 52 52 52 53 53 52 51 51 51 50 51 50 52 53 55 56 55 55 55 57 60 66 65 67 64 66 66 66 66 66 66 66 66 67
53 50 52 52 53 53 53 53 52 51 52 52 51 52 52 52 52 52 50 52 52 52 52 53 54 54 59 63 63 62 62 61 54 61 64 64 64 64 64 64 64 64 65 65

GFSNGP_sfc_temp_021.txt.gz
Temp
82 85 86 84 83 85 81 82 76 80 70 70 87 90 92 92 89 87 86 86 85 83 82 81 81 85 89 90 90 90 87 88 86 86 85 82 82 81 79 78 78 77 75 76
77 84 85 81 84 84 85 84 84 85 77 63 91 92 91 90 87 85 85 86 85 83 81 82 84 87 88 89 89 90 86 85 86 84 83 79 81 78 76 75 75 76 76 74
69 80 81 74 81 83 85 88 86 80 86 92 90 88 88 90 89 86 87 87 84 83 82 83 85 86 86 87 85 84 81 87 86 83 80 79 81 79 73 72 73 74 74 75
71 74 63 81 91 90 86 88 90 90 88 87 87 89 90 91 90 88 89 87 83 84 83 86 86 84 83 83 83 83 81 81 81 79 79 79 79 75 73 72 71 72 72 71
67 67 75 81 85 85 83 82 92 90 91 90 90 88 83 89 91 90 90 88 84 84 82 81 81 81 82 82 83 83 79 77 75 76 76 73 74 72 72 71 71 71 72 71
70 63 60 78 88 92 89 74 91 87 90 89 89 83 79 85 85 85 83 80 80 76 76 75 73 78 79 78 80 76 74 73 71 69 70 70 70 69 70 69 71 71 71 70
67 65 71 84 87 89 71 74 85 87 88 89 85 81 81 81 78 78 78 77 77 77 75 73 74 74 73 73 68 69 69 68 65 61 60 65 66 67 67 70 69 70 67 67
68 65 61 85 84 76 75 81 82 85 85 82 79 77 77 73 70 72 73 74 78 74 72 72 73 73 69 64 65 66 65 63 61 59 57 58 59 60 60 65 66 66 64 67
73 73 78 82 79 79 81 80 80 82 85 83 78 75 67 66 68 70 74 76 78 73 68 68 69 70 65 62 64 64 62 60 58 57 55 55 55 56 54 55 59 58 51 51
74 80 78 79 82 80 80 80 83 85 85 83 78 73 68 67 67 68 72 73 73 72 69 66 67 67 66 65 65 64 61 58 56 54 53 53 53 54 53 52 52 50 50 53
74 76 79 79 78 78 78 80 82 85 84 83 78 72 70 66 66 67 67 69 69 68 67 63 65 65 66 66 66 65 64 62 60 57 53 49 47 49 51 49 51 53 54 55
67 73 72 72 77 79 78 78 80 78 76 78 76 71 68 66 66 66 64 65 65 66 65 64 65 64 65 66 67 67 65 66 63 62 61 59 56 52 45 45 44 43 44 50
72 76 76 77 78 80 78 79 80 77 74 72 71 69 68 64 66 62 66 65 63 64 65 67 65 65 66 67 68 67 65 66 66 66 67 65 63 60 54 48 43 41 41 42
76 76 74 78 77 81 81 79 76 77 72 70 69 69 68 68 67 67 66 67 67 68 68 67 67 65 68 69 68 69 70 59 74 75 75 74 74 73 71 68 64 60 45 51
76 78 78 81 80 80 80 79 78 72 70 69 70 68 69 69 69 67 69 70 70 70 70 70 69 68 70 72 70 70 74 75 76 76 75 72 75 75 75 72 71 67 63 53
74 76 78 77 71 76 78 78 76 74 69 69 70 71 75 76 72 70 69 70 68 67 69 69 69 71 72 72 73 74 72 65 69 75 75 76 76 75 73 71 71 71 70 69
70 70 74 72 72 74 74 74 78 77 73 72 71 72 74 73 69 67 66 69 69 69 71 70 69 72 72 73 74 75 75 74 60 78 77 77 76 75 74 74 74 74 73 63
74 74 76 76 69 72 70 74 72 77 75 74 69 68 70 70 67 67 68 67 68 69 71 71 72 72 73 74 76 77 76 76 79 78 76 76 76 77 77 76 76 76 73 66
74 73 75 76 78 78 74 76 76 78 75 71 73 66 65 69 67 66 66 64 66 68 69 72 64 69 72 71 72 79 78 78 77 77 77 66 73 76 77 76 76 76 76 74
73 74 75 76 77 78 77 79 78 71 79 76 67 70 69 68 67 65 65 64 71 73 71 70 70 72 72 70 65 78 78 78 76 75 71 75 76 76 74 63 74 75 76 75
69 73 73 74 76 77 79 81 79 72 78 78 71 69 67 67 66 65 65 66 71 69 72 63 73 75 75 74 73 77 73 73 71 70 68 72 70 75 72 73 73 69 70 69
67 69 70 71 73 74 77 80 81 80 79 77 72 68 65 64 65 66 69 65 70 58 71 73 74 61 67 64 76 74 75 71 73 73 74 74 73 72 71 71 71 73 73 73
61 65 66 68 70 71 78 79 79 78 74 71 67 64 65 65 69 65 65 68 72 65 73 68 57 57 60 75 74 69 65 72 73 73 72 71 72 73 73 73 72 72 73 74
58 61 62 66 70 69 66 69 72 71 69 68 69 67 64 63 64 65 65 60 56 63 66 63 58 53 59 67 65 64 65 62 58 58 61 57 72 74 74 73 72 74 73 71
59 60 60 60 60 58 58 58 57 56 57 57 57 59 60 57 56 54 60 61 52 60 59 49 51 51 55 54 53 53 53 53 56 63 67 69 72 73 73 72 72 72 72 71
56 56 57 59 58 59 59 58 55 55 54 52 52 52 52 52 53 54 53 54 54 52 54 54 54 53 53 53 54 56 59 64 65 67 67 70 71 70 70 69 69 68 67 65
56 54 59 56 58 59 59 56 55 55 57 55 51 52 52 52 51 52 51 53 54 54 55 55 55 54 56 65 68 70 71 68 57 68 69 69 67 66 65 65 65 63 62 59

GFSNGP_sfc_temp_024.txt.gz
Temp
80 83 84 83 82 84 80 81 74 78 75 71 66 64 63 70 88 88 86 86 84 83 80 79 80 80 86 89 87 86 86 85 82 78 77 80 78 77 76 75 75 75 75 75
73 81 83 80 84 84 84 84 83 83 80 77 68 71 67 72 87 85 84 86 83 82 79 78 79 80 84 85 86 86 85 86 82 77 77 76 77 75 75 73 74 75 74 73
66 78 79 72 80 83 84 86 85 78 80 71 63 62 65 86 87 86 86 86 82 80 79 79 81 85 84 82 84 84 84 81 77 81 78 75 76 72 73 72 73 73 72 71
68 72 60 78 87 88 82 87 89 88 76 67 61 63 71 91 89 87 87 86 82 82 81 83 85 80 81 82 82 83 76 77 76 75 77 77 75 72 72 72 71 71 70 70
64 65 72 79 78 79 80 81 80 77 73 69 65 66 85 91 92 90 89 85 81 83 81 78 80 81 81 82 81 75 74 74 74 70 70 75 69 69 70 70 69 70 70 70
67 61 59 75 86 90 88 74 81 79 65 64 61 55 70 83 85 85 84 83 81 79 74 74 76 79 79 75 73 71 71 67 67 65 63 69 70 68 69 70 68 70 68 66
65 62 69 82 88 77 53 67 83 79 75 65 59 58 77 81 78 79 77 75 76 74 71 72 75 77 72 69 66 67 66 65 63 61 59 62 65 65 67 67 67 66 66 64
67 62 59 87 85 72 73 81 82 83 79 74 75 78 78 74 72 74 74 75 74 71 68 69 73 72 66 63 64 65 63 61 59 58 57 58 59 59 60 63 62 62 62 60
71 70 79 82 77 79 80 80 81 82 84 82 79 75 73 70 71 73 74 74 71 66 66 67 69 68 63 62 63 62 60 58 57 56 55 55 55 55 55 55 55 54 52 53
73 77 77 79 79 80 80 78 83 86 86 84 76 73 69 70 71 71 71 70 70 68 66 64 66 65 64 64 63 62 59 58 57 55 54 54 54 53 53 53 52 51 51 51
73 75 66 73 78 78 80 81 84 82 83 81 76 73 71 68 69 67 66 66 67 65 63 63 64 63 64 65 65 63 62 61 59 59 56 52 49 50 52 50 52 53 53 54
60 70 70 71 76 79 80 80 81 79 78 79 77 73 70 67 67 66 67 67 65 65 63 64 64 64 65 66 66 65 64 64 64 62 61 60 56 52 46 45 44 43 45 50
64 72 65 77 80 81 80 80 79 78 77 72 73 71 68 64 66 62 66 65 66 65 66 65 64 63 64 66 67 67 65 65 65 65 64 62 61 59 54 50 43 42 42 42
77 77 74 77 75 80 81 81 75 77 73 70 69 69 70 65 66 67 67 68 68 67 67 66 65 64 67 68 68 68 69 61 72 72 71 69 67 66 64 61 59 57 46 50
76 78 78 80 79 67 70 81 72 75 72 68 69 69 70 67 67 67 68 69 69 68 67 66 66 66 69 70 70 70 72 73 73 73 72 70 73 73 72 70 65 61 58 50
75 76 76 75 77 77 79 78 76 73 73 71 70 71 73 72 70 70 68 68 67 66 67 66 65 68 71 71 70 72 70 66 69 72 73 74 74 73 70 68 68 67 65 64
70 69 72 73 73 72 76 78 76 70 74 72 68 72 69 70 71 67 66 68 69 68 68 66 67 70 71 72 72 73 73 73 66 76 75 75 73 72 71 72 70 70 66 59
74 74 75 75 70 69 76 77 78 71 68 64 71 72 72 69 67 65 66 68 67 66 68 70 70 71 72 73 74 74 75 74 76 75 74 74 73 74 73 73 73 72 68 61
73 73 75 75 76 76 71 75 77 77 65 65 69 71 71 70 68 67 67 67 65 63 68 71 65 69 72 71 70 77 76 76 75 75 75 67 72 72 68 73 71 71 71 66
69 69 71 75 77 75 75 75 79 75 68 67 68 70 68 69 67 66 65 63 65 69 68 68 69 71 71 72 67 75 77 76 72 66 67 72 70 72 73 64 71 73 72 68
68 69 69 68 73 75 76 77 73 74 72 64 64 68 69 68 68 66 63 62 65 65 68 63 69 71 72 72 72 74 73 71 70 67 69 68 70 72 70 68 66 72 72 71
65 66 66 66 69 72 72 77 76 75 69 64 62 63 67 67 67 66 67 65 67 60 67 69 70 65 72 66 69 68 67 68 66 67 67 70 67 67 66 68 70 69 69 66
61 62 64 64 65 69 73 75 74 72 71 62 66 68 64 63 64 61 60 62 64 60 72 70 58 58 63 64 69 68 66 63 61 61 62 62 64 65 68 70 70 70 70 69
58 57 61 65 67 65 63 58 65 62 67 68 69 67 63 56 59 61 58 54 54 62 65 62 57 55 60 65 63 61 57 55 55 55 54 50 63 68 69 69 70 69 67 65
58 60 61 61 61 56 56 57 56 57 56 57 57 57 55 56 56 54 54 54 53 58 58 50 51 53 59 55 54 53 53 53 53 55 61 64 67 67 66 66 65 64 62 62
56 57 57 58 58 57 57 57 55 55 54 52 52 53 53 54 54 54 53 52 54 52 54 53 53 53 53 53 53 55 56 61 61 64 64 64 65 65 65 64 63 62 60 57
55 52 55 55 55 56 56 56 54 53 54 54 52 53 53 53 52 53 53 55 55 54 53 54 54 54 59 59 61 64 64 66 58 66 66 65 63 62 62 61 60 58 57 54

GFSNGP_sfc_temp_027.txt.gz
Temp
68 74 75 74 76 77 67 66 59 65 63 62 63 72 71 72 67 66 69 75 75 72 71 72 70 68 71 77 79 78 78 77 72 72 74 73 69 69 68 71 69 67 66 64
63 73 74 72 76 76 76 75 71 65 61 60 63 66 68 70 69 68 66 75 74 73 71 71 73 76 79 78 79 78 76 76 72 71 70 68 68 68 68 71 69 66 63 63
55 69 68 59 69 70 70 74 70 62 62 66 63 64 64 68 72 70 68 75 72 69 69 69 73 76 74 75 77 75 73 72 71 71 70 70 68 68 68 68 69 64 62 61
54 59 47 65 76 76 73 71 68 65 66 65 63 64 67 66 66 67 65 75 70 70 72 73 72 73 74 75 72 71 68 68 67 67 67 69 68 68 66 67 68 68 63 59
50 51 61 68 72 71 66 61 68 65 65 65 66 66 63 66 67 65 74 72 70 71 71 72 72 73 72 70 69 67 64 63 63 63 63 66 68 67 66 66 67 67 65 61
52 47 47 62 71 78 75 52 60 59 63 63 63 56 56 66 71 73 71 70 69 68 68 67 68 70 66 64 63 61 61 61 59 59 61 66 67 67 66 66 65 64 61 57
52 50 58 70 78 72 55 55 62 63 62 62 59 60 64 67 67 68 68 67 66 66 65 66 67 64 61 61 59 59 59 58 58 58 58 61 63 65 65 64 62 62 59 54
52 49 49 74 73 61 60 62 67 66 64 63 64 65 66 67 66 66 66 65 66 63 62 64 63 61 59 58 59 58 57 57 56 56 56 58 58 59 61 61 60 59 56 52
58 55 65 69 66 67 68 66 70 68 69 69 66 65 64 66 67 68 66 65 66 63 61 63 61 60 57 59 60 58 57 55 54 54 54 55 55 56 56 56 55 53 52 50
62 58 58 61 63 67 72 71 70 76 74 70 65 64 65 66 66 66 66 64 65 63 61 60 62 59 60 60 59 58 56 54 54 53 52 54 53 53 53 53 52 52 51 50
59 59 63 60 61 63 69 74 74 71 71 67 66 63 65 65 63 63 63 63 62 59 59 59 60 60 61 61 61 58 56 54 52 50 48 48 47 48 50 48 51 52 52 53
51 58 60 60 62 68 68 70 71 70 67 68 66 63 65 63 63 63 62 63 60 59 60 60 60 61 62 63 59 57 55 54 53 51 50 49 47 46 46 45 44 43 45 50
59 64 66 66 66 67 71 74 73 69 67 64 65 63 62 62 62 61 63 62 61 61 61 61 58 59 59 63 62 59 55 55 54 54 52 50 49 46 44 44 44 43 42 43
68 67 67 70 67 70 68 72 70 69 66 64 63 66 64 63 61 63 62 63 63 64 63 62 61 61 63 64 60 58 57 57 56 56 55 53 52 51 48 46 44 43 43 44
68 69 67 67 68 67 68 66 66 65 64 63 63 65 64 63 62 63 64 65 65 64 63 63 62 61 65 66 61 59 58 57 57 57 56 56 56 55 53 52 48 46 43 44
67 68 69 67 66 68 70 68 65 64 65 63 63 63 66 66 65 64 66 65 63 62 63 62 62 64 65 61 59 57 59 61 59 59 57 57 57 57 55 52 50 48 47 47
61 60 63 63 64 64 64 66 65 64 66 64 64 65 67 66 64 61 63 65 65 64 64 63 63 62 63 61 59 59 59 60 61 57 59 59 59 58 56 55 54 53 54 52
65 65 65 64 64 63 64 65 63 65 65 65 63 62 62 62 59 59 60 63 63 64 65 65 64 63 63 62 61 60 60 60 60 61 61 59 58 58 58 60 57 54 52 51
65 65 65 65 65 68 64 63 65 65 64 63 62 60 61 60 61 60 60 59 59 61 62 63 63 63 63 64 63 61 61 61 61 61 60 59 59 59 61 62 61 59 58 53
65 66 66 66 68 65 65 67 66 65 65 62 62 62 60 61 62 61 62 60 60 61 62 62 61 60 62 63 64 62 63 63 62 62 63 63 62 62 62 56 59 59 57 55
62 63 63 63 64 65 66 67 66 64 66 63 60 59 59 61 61 61 58 56 60 61 61 61 62 62 63 62 62 62 62 61 61 60 61 62 61 58 60 58 59 59 59 58
61 60 60 60 61 61 63 65 62 64 64 63 62 61 59 59 60 59 61 59 58 57 59 59 60 62 61 61 61 60 60 61 60 60 58 59 59 57 58 58 58 59 58 57
57 57 58 58 58 58 61 59 59 58 62 61 58 57 57 58 59 58 56 61 62 59 59 58 56 57 59 59 59 57 58 57 55 55 56 56 57 60 59 60 59 58 56 55
56 57 56 57 57 58 56 55 56 56 57 57 59 60 57 54 52 57 56 52 52 56 55 55 54 55 57 59 57 56 54 54 54 54 54 50 59 58 57 56 55 55 54 51
56 56 56 56 56 55 56 56 55 55 55 54 55 54 54 54 51 52 54 53 51 54 54 51 52 53 56 54 53 52 52 52 53 55 55 54 54 56 56 55 53 51 50 50
55 55 55 56 56 55 55 55 53 53 52 52 52 53 53 53 53 52 52 52 53 51 52 52 53 53 53 53 53 54 53 53 51 52 53 55 54 54 54 53 51 49 47 46
54 51 54 53 54 55 54 53 52 52 52 52 51 52 53 52 52 52 51 52 52 52 52 52 52 53 54 56 55 54 54 53 50 54 53 53 52 50 50 49 48 47 45 45

GFSNGP_sfc_temp_030.txt.gz
Temp
60 67 67 66 68 69 63 61 57 65 59 62 61 61 62 65 64 63 66 66 70 66 66 68 66 65 71 70 70 75 74 72 71 69 68 66 66 66 66 66 65 63 61 61
58 70 68 66 70 69 68 68 63 60 59 57 63 60 65 65 65 64 65 70 69 69 68 68 68 67 71 72 74 74 73 71 70 69 68 66 66 66 66 65 63 61 60 59
50 64 63 57 65 66 65 64 61 57 61 60 59 61 59 61 63 65 66 69 68 70 70 69 70 72 72 72 72 71 70 69 69 68 68 66 66 66 67 65 63 60 59 57
51 57 44 61 71 68 62 61 62 62 61 60 59 60 63 63 63 65 65 68 69 69 68 68 70 70 70 72 69 66 65 65 65 66 67 66 66 66 66 66 65 59 59 55
48 45 55 64 70 66 61 55 60 60 63 63 64 62 62 65 66 71 65 68 68 68 69 69 68 68 66 65 64 64 62 62 62 62 63 67 67 65 65 65 66 63 60 56
47 45 45 58 70 72 67 51 62 63 62 62 62 52 57 63 67 68 70 67 68 67 68 67 65 65 63 62 61 60 59 59 59 61 62 66 66 64 65 65 62 61 58 55
46 45 52 64 72 70 52 55 63 64 64 62 58 59 61 65 65 65 65 64 65 64 63 62 62 63 61 59 58 58 57 56 57 58 59 62 65 65 63 61 60 58 55 54
45 44 45 67 66 58 58 59 62 64 63 63 63 64 64 65 61 62 62 62 62 61 60 60 60 60 58 57 56 57 57 57 55 56 56 58 60 62 61 60 57 55 53 51
52 50 57 58 58 59 62 61 63 63 65 65 64 63 63 62 60 60 61 62 62 61 59 59 59 59 57 56 55 55 55 55 54 54 54 55 56 57 56 56 55 53 51 50
53 55 55 58 62 63 64 64 65 66 66 66 62 62 61 61 60 59 60 61 60 60 59 58 57 57 57 56 56 55 55 54 54 53 52 53 53 54 54 54 53 52 51 51
51 55 57 60 61 62 66 67 66 67 67 65 63 63 61 60 61 62 62 62 59 57 58 58 58 58 59 58 57 55 54 53 51 50 50 49 47 49 50 49 52 52 52 53
49 56 56 58 60 64 64 67 67 66 64 65 63 62 61 62 60 61 60 58 59 59 59 59 59 59 59 57 55 52 50 49 48 47 47 47 48 46 47 45 44 44 47 49
57 59 60 61 64 65 64 66 66 65 65 63 61 61 60 61 62 60 61 61 60 59 60 60 60 60 61 57 55 53 52 50 49 49 47 46 45 45 44 44 44 43 43 44
62 63 61 64 60 65 67 66 66 65 65 63 61 60 61 62 61 61 61 61 61 61 60 60 60 60 62 62 58 54 53 52 51 50 49 47 47 45 44 43 43 43 43 42
63 64 64 61 63 63 64 64 62 61 61 61 61 60 59 59 61 62 62 62 62 61 61 61 60 60 63 58 56 55 54 53 52 52 50 50 49 47 46 45 44 43 41 43
61 62 63 62 61 62 63 63 59 60 61 60 60 60 60 61 63 63 62 63 61 60 61 61 60 62 63 58 56 55 55 56 54 50 51 50 51 50 49 48 45 44 43 44
58 56 58 57 59 61 59 61 62 61 60 59 60 61 60 61 63 62 62 63 63 62 63 62 62 63 59 61 56 54 55 55 59 55 54 53 55 51 52 49 48 47 47 47
58 57 57 56 56 57 59 62 62 63 61 62 61 60 59 59 59 59 60 63 62 62 62 63 63 62 62 59 57 56 56 58 57 55 56 55 55 54 53 52 51 50 48 48
61 59 60 60 59 58 58 59 59 63 64 63 59 58 59 58 58 57 58 61 60 59 60 63 62 61 60 61 58 57 57 58 60 59 59 56 56 56 54 54 55 54 52 51
59 59 59 59 60 59 58 59 60 60 61 60 58 57 56 57 58 60 58 58 61 62 63 63 62 61 61 61 61 59 60 60 58 56 57 59 57 58 54 53 55 54 53 52
56 57 57 57 56 57 58 58 57 57 59 59 59 57 57 58 58 60 58 57 60 62 62 60 60 57 56 58 60 59 57 56 56 55 54 55 57 57 57 53 53 53 54 53
52 53 54 55 54 54 56 56 56 56 57 59 58 57 56 57 57 56 59 57 57 55 58 59 58 57 57 57 55 55 55 55 53 53 56 56 55 57 56 56 54 54 51 50
50 51 52 51 52 51 53 54 54 54 55 55 58 58 57 57 57 56 55 56 56 55 56 55 55 56 55 56 55 55 54 55 55 55 55 55 57 57 57 55 54 52 50 47
54 52 54 56 56 52 50 52 52 52 52 56 56 54 53 54 51 54 52 52 52 55 55 55 55 53 54 53 55 56 55 54 54 54 54 51 57 56 54 52 48 46 45 44
54 52 50 51 50 51 53 54 54 52 50 52 52 52 52 52 51 51 52 53 51 55 54 51 52 53 56 54 53 52 51 51 52 54 53 53 52 49 47 47 45 44 43 42
53 51 54 55 54 54 54 53 52 52 52 51 51 51 51 52 52 51 52 52 52 51 52 52 51 52 52 52 52 53 54 54 52 50 50 49 48 47 46 45 43 43 42 41
53 50 53 53 53 53 53 52 52 51 51 52 51 52 52 52 51 51 50 51 51 52 51 52 52 52 54 54 52 50 48 48 49 50 48 47 46 45 45 44 43 42 41 40

GFSNGP_sfc_temp_033.txt.gz
Temp
57 65 66 64 64 65 58 56 54 56 55 57 59 59 62 63 63 63 65 65 66 66 66 66 64 64 66 67 68 70 69 68 67 65 66 66 65 65 64 64 62 61 60 59
55 65 66 64 67 66 64 62 59 57 54 55 57 60 61 61 62 63 64 66 68 68 66 66 65 64 69 68 68 69 71 69 68 66 66 66 65 64 63 62 60 60 58 58
50 59 62 56 61 61 60 58 55 54 56 57 56 60 60 61 62 63 65 65 68 70 67 66 66 66 66 66 68 69 70 69 68 67 66 65 65 65 64 63 62 59 57 56
48 52 45 59 65 66 59 59 59 57 57 58 57 59 60 61 60 63 65 65 67 66 67 67 68 67 66 66 65 65 66 66 67 67 66 65 65 65 64 64 62 59 56 56
47 44 53 58 64 63 59 56 60 58 60 60 61 59 61 65 64 64 64 65 66 66 66 68 66 66 65 65 65 64 62 62 62 64 65 66 65 65 64 63 61 60 58 57
45 44 44 56 66 67 65 52 61 60 60 60 61 58 60 62 67 67 66 65 65 66 66 66 64 66 67 66 64 61 60 60 61 61 62 65 66 65 64 63 60 59 57 56
44 44 51 60 66 67 51 53 61 62 61 59 57 60 62 63 63 64 63 63 63 63 63 62 61 63 62 61 60 59 58 58 59 59 60 64 65 64 61 59 57 55 55 54
42 42 45 62 63 58 57 57 60 61 61 60 59 63 63 62 62 62 61 62 62 60 59 59 59 60 59 56 56 57 56 56 57 58 57 60 63 61 60 57 54 53 53 51
49 48 54 57 57 58 58 61 62 61 62 61 61 61 62 61 61 61 62 61 62 59 57 58 59 58 57 55 55 56 56 55 56 55 55 56 59 59 57 56 54 53 52 51
50 53 54 57 61 62 63 61 65 64 63 65 62 62 61 61 59 60 60 59 60 60 58 57 57 57 56 56 56 58 56 56 54 54 53 54 54 55 55 54 53 52 51 51
51 53 55 58 59 61 64 65 65 66 65 66 63 62 61 60 59 59 60 59 60 58 57 57 57 57 57 58 56 55 55 54 52 52 51 49 48 50 51 50 53 53 52 52
48 54 54 56 60 63 64 64 65 64 63 64 63 62 61 59 59 61 59 59 58 58 58 58 58 58 55 55 54 52 50 49 49 50 49 50 48 45 47 45 44 46 47 49
55 56 57 61 62 63 64 65 66 65 64 63 62 62 59 59 59 59 60 60 59 59 59 59 59 58 58 54 52 50 48 47 47 47 46 45 45 45 45 45 44 42 43 44
60 61 58 59 58 63 65 66 64 64 63 63 61 61 59 59 58 59 60 61 61 60 59 59 59 59 60 55 53 51 50 50 47 47 46 45 45 44 44 44 44 43 43 42
59 60 60 58 61 61 62 64 62 61 61 61 61 59 59 58 58 59 60 61 61 60 59 60 60 60 61 61 55 52 51 50 49 48 47 47 46 45 44 44 43 42 41 43
58 59 60 59 58 60 62 61 58 59 59 59 59 59 59 59 59 59 59 61 59 57 59 60 60 62 62 56 54 53 52 54 51 49 48 48 47 46 45 45 43 43 43 43
56 54 54 54 56 55 56 59 59 58 60 59 59 59 59 58 58 57 58 61 61 61 61 61 61 62 61 57 56 56 53 54 54 51 52 50 50 49 48 47 46 45 46 46
55 54 54 53 54 54 55 56 57 58 59 63 60 59 58 57 57 56 57 61 61 61 61 63 63 62 59 58 55 53 53 52 55 55 52 50 50 50 51 52 50 50 47 47
57 56 56 57 56 55 54 55 56 56 57 59 59 57 58 58 57 56 58 60 59 59 61 60 61 59 57 58 57 53 54 57 58 54 54 53 52 51 51 51 52 50 49 48
55 56 56 55 56 55 55 56 56 56 57 57 57 56 56 55 55 56 56 55 60 61 62 62 58 57 59 60 60 57 59 59 56 54 53 52 52 53 51 49 51 50 49 48
52 53 54 54 54 55 55 55 54 55 56 56 56 55 55 55 55 56 54 57 59 61 61 60 57 55 55 56 58 55 54 54 53 52 52 51 52 51 50 49 49 53 52 50
49 49 50 52 51 51 53 53 53 54 54 55 56 56 55 54 55 55 56 56 55 54 57 59 59 58 58 56 54 53 53 53 52 51 52 52 52 54 50 50 52 51 50 49
48 48 49 49 49 49 50 50 52 53 52 53 53 54 54 56 56 55 54 56 56 53 54 54 54 55 54 52 53 52 53 53 52 52 51 54 55 55 54 52 51 50 48 47
49 51 53 54 55 52 49 50 50 50 54 55 55 52 53 55 53 52 53 53 52 51 54 54 53 52 53 54 53 52 52 51 50 51 53 49 54 53 51 50 48 46 42 41
53 52 49 49 48 48 51 53 53 51 52 52 52 52 51 51 51 49 52 52 50 53 52 50 51 52 53 52 51 49 48 49 51 51 50 51 49 44 43 43 42 41 41 40
52 50 53 54 54 54 53 52 50 51 51 50 50 51 50 51 50 51 52 50 51 51 52 51 52 52 51 50 51 52 52 51 52 52 49 45 44 43 43 42 41 41 40 39
53 50 53 52 52 52 52 52 51 50 51 51 50 51 51 50 50 50 50 51 51 51 52 52 52 51 54 54 53 52 52 50 45 45 45 45 44 43 42 41 41 40 38 38

GFSNGP_sfc_temp_036.txt.gz
Temp
55 62 63 64 63 62 57 55 55 56 55 61 60 60 61 62 62 64 65 66 65 65 65 65 64 65 67 68 69 69 70 70 68 67 67 67 67 67 66 65 64 63 62 62
54 63 65 64 64 63 62 60 58 57 57 59 57 60 62 63 63 63 63 66 66 67 65 65 65 65 66 67 68 70 70 70 68 67 67 66 67 66 65 64 63 62 61 61
49 58 61 56 58 59 57 57 57 55 59 57 58 60 61 63 62 62 62 63 66 67 64 63 64 67 65 66 67 68 70 69 69 67 67 66 66 65 64 63 63 60 59 60
49 51 45 57 62 64 61 59 58 57 58 59 59 61 61 62 64 63 63 63 65 66 65 65 65 66 67 68 68 68 68 69 68 68 67 66 65 64 64 64 62 60 58 58
48 44 51 59 62 60 59 58 60 58 60 61 61 62 62 64 65 64 63 64 65 67 68 67 65 67 67 67 67 66 64 65 65 67 66 66 65 64 64 63 61 60 59 59
45 45 45 56 64 67 64 52 61 60 60 59 60 54 56 62 66 66 66 64 65 66 67 67 66 66 66 65 64 63 62 62 63 64 65 65 66 65 64 62 59 59 57 57
46 46 52 59 64 65 52 54 60 61 60 59 57 58 60 63 64 64 62 63 64 64 62 61 62 64 63 61 60 59 60 61 60 61 62 64 65 64 62 59 57 57 56 56
45 43 45 58 61 57 58 57 60 61 62 61 60 61 63 63 62 62 62 62 62 61 60 60 61 61 58 58 58 59 59 59 59 59 60 62 63 61 58 57 55 54 55 53
50 49 53 56 56 59 58 60 61 61 62 63 62 62 63 61 61 62 61 61 61 59 58 58 59 60 58 57 59 59 59 58 57 57 56 58 61 59 57 56 54 54 54 52
49 52 54 56 58 61 62 62 65 65 63 64 62 62 61 60 61 60 61 61 61 60 58 57 58 58 57 58 59 59 57 56 55 55 55 56 56 57 57 56 54 53 53 52
52 53 55 58 59 60 62 65 65 66 66 64 62 61 61 60 59 59 59 60 61 59 58 57 57 57 58 57 58 57 57 56 54 54 53 50 48 50 53 51 54 54 53 53
48 53 53 55 59 62 63 64 65 64 64 63 62 60 61 59 60 60 59 60 59 59 58 58 58 58 56 58 58 56 54 53 52 52 52 51 51 49 47 45 44 45 47 51
54 56 56 61 62 64 64 66 67 65 64 63 62 62 61 60 60 58 59 60 60 59 59 59 59 58 56 55 54 55 53 51 51 51 51 50 50 51 50 49 44 42 42 44
58 59 58 61 60 64 66 66 64 64 63 62 62 61 61 60 59 59 60 61 61 61 60 60 59 59 57 56 54 53 52 49 51 50 50 50 50 50 51 51 51 50 45 45
60 60 59 59 61 62 63 63 62 61 61 61 61 61 61 60 59 59 60 61 61 60 60 60 60 59 59 57 55 54 53 52 52 52 51 50 51 51 52 51 51 50 50 47
57 58 59 58 58 61 62 62 60 59 60 60 59 60 60 61 60 60 60 59 58 57 60 60 59 61 62 60 57 56 55 53 52 53 52 52 52 53 52 52 52 52 52 53
54 53 54 54 57 58 58 59 59 58 59 59 60 60 60 60 59 59 59 59 59 59 61 61 61 62 62 59 58 57 57 57 55 55 55 55 55 55 55 54 54 54 54 52
54 53 54 54 54 54 55 56 57 58 58 59 59 60 59 58 58 58 58 59 60 61 62 62 62 62 62 60 59 58 58 57 57 57 57 57 57 57 56 56 56 56 56 53
55 55 56 56 56 55 55 56 56 56 57 57 57 58 59 59 58 58 58 58 59 59 61 62 61 62 61 59 58 56 56 57 57 57 58 54 56 57 57 57 57 57 56 56
54 55 56 56 57 56 55 56 56 56 57 57 56 57 57 58 58 57 57 57 59 61 63 62 61 60 59 59 59 59 59 60 60 59 58 58 58 58 58 52 58 58 56 54
50 52 52 52 53 55 55 55 54 54 56 56 55 55 56 57 57 57 55 56 59 60 61 59 61 59 59 60 60 61 61 60 59 58 57 58 57 57 56 55 56 56 55 53
49 49 50 51 51 51 53 53 53 54 54 55 56 55 55 56 56 56 58 58 58 54 58 59 60 58 59 58 59 59 58 58 57 57 56 56 56 55 56 53 53 54 52 50
47 48 49 49 51 51 51 51 52 52 52 53 53 54 53 55 56 55 55 58 56 54 56 56 54 54 54 56 55 57 58 57 57 57 57 56 56 57 55 53 52 51 49 48
48 51 50 53 55 53 51 51 51 51 52 56 55 54 52 52 55 55 56 53 52 53 56 55 52 50 51 52 54 57 57 56 56 56 54 50 55 52 51 50 50 49 49 48
53 53 53 51 52 51 52 53 52 52 52 52 53 53 52 52 52 54 54 55 50 54 54 50 50 50 53 53 53 53 53 53 56 56 55 53 52 50 48 50 51 50 49 49
53 52 53 53 53 53 52 52 51 51 51 51 51 51 51 52 51 52 52 51 52 50 50 50 52 54 53 53 53 54 54 52 54 55 52 50 49 51 51 50 50 49 49 48
52 49 52 52 52 52 52 51 51 50 51 50 50 51 51 51 50 51 50 52 51 52 51 51 51 52 55 55 54 53 52 52 49 51 52 51 50 50 50 50 49 49 48 47

GFSNGP_sfc_temp_042.txt.gz
Temp
82 83 82 82 81 79 78 81 76 79 80 82 80 79 83 84 82 82 82 82 79 74 78 78 76 75 78 81 84 87 84 84 81 81 81 82 80 80 80 80 79 79 78 79
77 83 83 79 82 81 81 82 82 83 80 83 82 81 81 82 82 81 81 82 81 78 79 78 78 78 77 80 83 86 85 82 82 80 80 79 79 77 79 79 78 78 78 79
71 80 79 73 80 81 83 85 84 78 80 83 80 79 80 80 81 81 81 81 80 80 80 79 80 79 78 78 79 83 84 84 81 77 78 79 79 77 77 77 76 75 77 78
74 74 62 77 86 88 84 84 85 82 80 81 80 80 82 82 81 81 81 82 82 83 82 81 82 80 75 74 70 78 82 84 80 77 78 76 76 76 74 76 74 73 74 76
68 69 73 74 78 79 80 79 85 83 81 80 82 81 77 80 80 79 77 77 81 84 83 82 82 80 77 73 69 74 81 81 79 78 76 73 72 75 74 74 74 74 75 75
71 66 62 77 80 84 84 73 83 82 82 81 80 77 78 78 79 71 71 74 77 82 83 81 78 78 76 74 73 78 80 76 73 75 74 71 73 75 73 72 73 77 73 72
71 70 71 80 81 85 69 71 81 82 81 81 81 79 78 80 74 70 68 68 74 76 79 73 75 77 75 74 73 76 74 75 73 73 72 73 72 72 68 69 72 72 70 68
73 68 63 77 79 75 73 78 81 82 81 78 79 77 78 78 76 71 66 67 68 67 66 68 70 75 73 68 66 68 69 71 72 71 74 75 69 68 66 66 68 69 70 70
70 70 71 76 74 75 76 75 78 81 82 81 79 78 77 76 75 71 70 70 72 71 69 68 67 69 69 67 68 67 68 66 67 68 69 70 69 63 61 62 67 64 66 70
71 73 74 73 76 76 77 77 80 82 82 83 80 79 77 74 75 71 73 74 77 76 73 70 69 68 67 66 66 66 66 65 65 63 62 63 63 62 61 67 66 61 63 68
71 73 73 74 75 76 77 79 80 82 82 81 80 78 76 70 73 75 75 75 76 74 72 69 69 66 65 65 65 64 64 64 64 63 60 56 53 56 60 59 65 63 65 66
72 71 73 73 74 76 78 78 80 79 78 79 80 79 78 77 74 75 75 76 75 75 74 71 71 68 67 67 66 65 65 68 70 70 62 58 57 53 46 47 45 47 50 60
73 75 73 75 75 76 78 79 80 80 79 78 79 80 79 77 76 68 74 76 75 76 76 75 74 72 70 69 68 66 67 67 70 67 65 60 59 57 51 49 44 42 44 45
76 76 73 75 74 77 79 78 76 80 80 79 78 79 78 77 74 76 76 77 77 77 77 76 75 73 72 72 68 67 67 56 69 68 70 67 66 65 66 66 67 65 47 52
75 77 77 79 79 77 78 79 76 76 77 77 78 78 78 76 77 77 78 77 76 76 75 75 74 73 74 74 72 67 68 69 68 68 70 69 72 74 76 74 74 71 65 54
74 75 76 76 76 77 77 75 68 71 69 72 79 78 77 79 79 79 78 77 74 74 74 74 74 74 74 73 71 73 72 61 67 75 73 75 76 76 76 74 73 72 72 72
70 71 73 73 73 74 74 76 77 77 78 77 76 77 78 78 78 78 77 77 75 75 75 74 75 76 73 72 69 73 76 73 66 77 76 76 77 76 76 75 75 75 75 72
72 73 74 74 74 74 73 74 75 74 73 74 75 76 76 76 74 76 77 79 78 76 75 77 75 74 73 71 66 67 76 75 75 77 77 76 76 76 76 77 77 76 76 68
71 71 72 72 73 73 74 74 74 74 74 73 73 72 73 74 75 75 76 76 75 74 77 78 66 68 73 69 66 65 74 74 74 76 76 69 74 78 77 77 77 78 78 76
70 71 72 71 73 72 72 74 74 73 73 73 71 70 70 72 73 73 73 72 75 77 78 77 74 74 73 71 63 66 69 74 69 75 76 76 77 77 77 67 76 77 78 77
68 69 69 70 70 71 72 72 71 70 71 71 69 68 68 69 71 71 70 73 76 78 75 68 75 76 76 72 67 68 68 71 76 76 75 73 72 71 75 75 77 77 76 76
67 68 68 68 67 68 70 71 70 70 69 68 68 68 67 67 68 68 70 70 76 59 75 79 78 70 73 63 75 70 69 73 69 68 76 74 68 73 73 74 77 75 73 67
66 66 66 67 66 66 69 69 68 67 65 64 62 61 59 59 59 56 59 70 75 65 73 79 64 57 56 70 73 71 71 75 71 71 75 76 73 71 70 69 64 68 70 71
59 60 62 64 65 65 62 61 62 60 59 59 58 59 58 57 60 66 65 59 54 56 68 71 64 52 53 72 69 76 73 69 68 63 66 55 64 67 66 64 65 71 65 58
58 59 60 60 59 58 61 60 60 61 60 58 59 57 57 57 54 57 57 61 53 55 62 50 51 52 66 60 55 56 56 57 57 57 57 56 56 57 58 59 63 66 65 64
57 56 55 57 57 57 58 59 59 59 60 57 58 58 57 55 53 53 55 53 57 54 59 60 62 61 55 54 54 53 53 54 58 59 57 56 56 57 58 58 62 64 69 71
57 50 59 57 57 58 58 57 57 58 56 56 56 55 53 52 52 52 50 52 52 52 53 54 55 53 54 55 53 54 53 53 51 56 56 55 56 56 60 64 70 71 71 70

GFSNGP_sfc_temp_045.txt.gz
Temp
84 87 88 86 84 85 82 84 79 67 73 66 85 87 90 90 87 87 87 87 86 82 83 83 81 82 84 85 85 86 86 87 85 84 83 80 80 82 82 82 82 81 81 81
79 86 87 82 86 86 86 87 85 84 74 68 81 89 87 86 86 85 86 86 87 84 84 83 81 82 83 84 85 86 86 86 84 82 82 80 80 80 81 80 81 81 81 82
72 83 83 76 83 85 86 88 88 80 82 87 85 85 85 85 86 86 87 88 86 85 85 83 83 83 82 83 86 85 84 86 83 80 80 77 79 77 79 77 78 78 79 80
74 77 65 83 93 92 87 88 91 87 85 87 85 85 88 88 87 86 86 87 87 88 86 85 86 84 82 82 81 82 79 84 82 80 79 78 77 76 77 77 76 75 77 76
71 72 77 81 86 87 85 82 91 87 86 87 88 87 82 86 85 83 82 83 85 89 88 86 86 83 80 79 79 77 73 79 81 81 81 77 76 76 76 74 74 74 77 74
75 67 63 79 90 95 93 76 89 89 87 86 86 81 80 84 84 80 78 77 83 86 87 84 83 82 81 78 75 72 72 76 83 80 81 78 75 77 75 75 75 75 74 75
73 71 75 76 88 91 72 73 87 89 88 88 83 82 84 84 77 75 73 73 78 82 85 82 81 82 79 78 75 74 72 77 77 71 71 75 76 76 76 75 74 73 74 74
75 68 60 85 84 77 78 84 88 87 87 84 83 83 83 82 77 74 73 72 76 73 72 74 79 78 78 77 72 73 70 74 73 72 74 73 75 74 73 70 68 69 71 72
70 66 75 81 78 81 83 83 86 85 87 86 84 83 83 81 75 73 73 72 73 72 73 73 73 75 72 68 71 71 70 69 67 68 68 72 72 69 66 65 65 65 71 74
73 77 77 81 82 84 84 84 87 88 87 88 84 84 82 82 79 77 76 78 79 77 74 71 72 72 70 69 69 68 68 66 66 66 65 66 68 66 65 65 64 66 71 68
75 78 80 80 81 82 83 84 86 87 87 86 85 83 81 78 79 80 77 79 80 77 76 73 70 71 72 69 69 68 67 67 66 65 62 58 55 56 62 63 61 69 72 68
66 77 78 76 79 82 82 83 85 85 84 85 85 83 83 80 80 81 80 80 79 78 74 73 71 71 70 70 70 68 68 69 69 67 62 58 56 54 47 47 46 48 49 61
77 80 79 80 80 83 82 85 85 85 84 83 84 84 83 80 80 69 81 80 80 80 79 78 77 75 75 72 70 67 67 70 71 66 67 61 61 57 54 52 45 43 44 46
81 81 77 80 77 81 81 82 80 85 84 83 83 84 82 81 78 82 81 82 82 82 81 80 79 79 77 75 71 70 68 57 72 72 70 67 64 65 69 64 57 59 48 52
79 82 81 80 77 79 80 77 67 66 74 77 75 75 79 79 79 80 83 82 81 81 80 80 80 79 80 79 72 69 70 73 72 72 72 70 70 68 67 65 67 68 66 55
75 77 79 79 74 76 78 73 66 68 70 70 70 67 71 81 82 82 81 82 79 79 79 79 78 80 77 75 74 73 69 63 66 74 74 72 73 73 75 75 76 75 71 70
73 73 76 77 78 79 77 80 68 73 72 74 74 73 77 79 81 81 81 82 81 79 79 78 78 80 76 75 74 74 72 70 68 75 79 79 80 80 80 79 78 77 76 74
76 78 79 78 77 78 78 79 80 78 78 78 79 78 78 77 76 77 79 80 80 80 81 82 81 80 78 76 75 77 74 70 77 76 80 79 80 80 80 79 78 78 78 69
76 75 76 76 77 77 78 78 79 79 79 77 76 75 75 75 76 77 78 77 76 76 79 81 70 73 78 73 73 78 71 66 73 74 79 71 78 80 80 80 80 80 79 75
74 75 76 75 77 74 75 77 77 77 77 77 75 73 72 73 74 74 74 73 75 78 79 81 80 79 78 73 65 76 74 66 69 68 75 69 74 75 79 70 77 79 77 75
72 73 73 73 74 75 77 77 75 74 74 74 72 71 71 72 73 73 70 72 75 78 77 71 79 81 82 72 72 75 76 67 68 66 64 66 71 74 71 71 74 72 70 69
72 72 72 73 72 72 74 75 75 74 73 71 69 68 67 66 68 69 71 70 75 64 74 79 82 74 79 64 73 73 73 72 70 69 66 69 74 71 71 69 68 66 71 73
69 69 69 71 71 70 72 73 70 67 66 66 64 62 61 61 62 59 59 69 72 66 69 73 64 58 57 76 77 72 70 73 70 69 70 70 70 69 68 67 64 61 59 66
63 63 65 68 71 69 66 65 68 68 66 63 61 61 60 59 61 66 66 59 55 55 64 64 63 55 51 78 78 69 65 60 68 73 68 61 64 62 61 58 53 55 58 57
65 64 66 64 63 62 65 65 67 64 65 62 62 61 61 61 57 58 57 58 53 56 61 53 52 53 68 72 71 66 64 57 56 57 57 56 56 55 53 56 54 54 57 58
61 63 66 63 65 66 66 65 65 64 64 59 61 63 59 57 56 56 55 53 55 54 57 57 61 62 60 62 63 61 57 56 56 58 57 57 55 55 56 55 55 54 54 56
59 54 60 62 62 66 64 61 61 63 63 61 61 59 55 55 54 52 50 52 52 53 54 56 57 57 57 55 55 54 53 52 49 53 53 52 52 52 52 53 54 55 57 63

GFSNGP_sfc_temp_048.txt.gz
Temp
82 85 86 84 83 85 81 82 76 75 69 70 69 70 72 88 88 87 87 88 86 85 83 78 79 81 82 84 82 82 80 80 81 81 81 80 80 80 80 80 79 79 78 79
75 83 84 82 82 67 82 86 84 84 69 70 75 77 78 85 85 85 86 88 86 84 84 77 79 81 83 83 82 83 81 80 81 79 77 78 79 78 79 78 78 79 79 78
68 80 80 74 82 85 86 88 87 78 77 74 72 75 78 83 86 86 87 88 87 85 84 78 80 81 82 81 83 80 81 82 79 78 78 77 78 77 75 77 77 77 75 73
69 74 62 80 92 92 87 89 86 76 73 69 67 79 86 88 87 86 87 87 87 87 86 82 84 82 83 82 82 81 78 78 76 76 76 73 76 75 74 76 75 75 75 73
66 68 75 81 87 87 84 83 84 76 74 75 79 83 80 87 87 84 84 84 84 87 87 83 84 81 81 80 80 78 76 76 71 73 74 74 74 73 75 75 74 74 75 73
70 65 62 79 83 80 86 73 69 64 60 71 82 75 76 83 83 80 79 81 83 85 82 79 80 81 80 78 77 76 76 72 70 70 69 71 72 74 73 73 73 74 74 73
69 67 74 76 78 83 62 62 74 76 75 80 75 80 79 80 77 77 77 77 80 81 78 79 81 81 79 78 76 77 75 69 69 68 67 69 69 70 72 73 72 71 71 70
71 67 63 74 77 62 59 62 82 84 84 79 78 82 80 78 76 74 74 78 77 73 71 74 78 78 78 76 74 73 72 70 68 68 68 69 70 69 69 68 69 69 68 69
70 68 72 80 73 80 80 81 83 85 85 84 83 82 80 75 73 73 74 74 76 74 73 73 74 75 73 72 75 74 71 70 68 68 68 67 68 71 67 67 66 66 64 67
58 69 74 76 79 79 83 84 87 88 88 87 83 84 80 77 76 75 76 76 78 76 72 70 71 69 70 70 71 70 69 67 67 67 65 66 66 67 67 65 64 63 63 64
72 71 77 74 80 81 82 85 87 89 89 86 85 82 81 79 76 75 75 77 79 76 74 71 72 70 69 69 68 66 66 65 66 64 63 60 55 53 60 61 60 62 62 64
70 77 75 74 78 85 83 84 86 86 85 86 85 80 80 80 79 77 78 79 77 76 76 74 73 72 71 70 69 68 67 67 67 65 63 59 55 54 48 46 45 46 48 58
60 80 78 80 82 85 84 85 86 85 84 79 80 77 77 78 77 70 80 80 79 78 78 78 77 75 72 70 70 67 67 69 68 66 64 62 57 57 54 51 45 44 44 47
61 80 77 81 78 83 75 76 73 71 72 71 69 67 73 78 77 81 80 81 81 81 80 80 80 79 77 76 72 71 69 58 68 69 68 67 64 61 60 57 58 56 48 50
61 74 80 82 68 68 69 70 69 69 71 71 72 70 69 69 74 75 77 82 82 81 80 80 79 78 81 80 75 72 71 71 71 71 69 66 66 65 65 64 64 61 56 51
65 75 80 80 69 63 61 61 62 66 69 68 68 66 69 68 72 74 81 82 78 77 78 78 77 80 77 79 76 75 73 66 64 68 70 69 67 66 68 66 65 64 62 63
69 69 76 77 63 62 63 62 69 71 75 75 75 77 77 78 78 78 78 79 78 78 79 78 77 80 78 77 75 74 75 71 67 71 71 69 70 71 73 71 69 66 68 69
78 77 80 77 71 68 63 66 72 74 77 78 79 78 78 77 75 75 76 77 78 77 78 79 80 80 80 80 77 75 74 71 73 67 73 71 70 73 72 72 70 72 74 62
76 76 77 77 76 70 64 76 78 78 78 77 76 75 75 75 74 74 75 73 72 72 75 78 71 73 78 76 74 77 72 71 74 70 70 66 73 76 73 76 76 72 71 68
75 75 77 76 78 76 74 76 77 76 76 76 75 73 72 73 73 73 73 70 71 73 73 75 74 76 77 76 67 76 73 72 74 69 68 67 68 67 67 64 68 71 71 71
73 73 74 74 74 75 76 76 75 73 74 74 72 70 69 69 70 69 68 69 73 72 69 69 75 78 77 75 71 76 75 73 73 70 66 65 65 65 62 65 63 62 66 64
69 70 72 72 71 72 74 74 74 71 69 69 68 66 64 64 65 65 67 64 68 60 66 72 75 61 64 59 73 77 76 74 73 72 69 64 64 63 64 67 62 61 61 61
68 68 69 69 69 70 72 69 70 68 66 64 63 61 60 61 62 60 59 66 66 61 64 68 61 57 56 67 71 67 72 73 68 68 67 63 64 62 60 59 58 57 54 54
64 65 66 68 66 66 63 66 67 63 63 62 62 62 60 58 59 62 62 58 54 55 59 61 59 53 51 67 66 62 60 65 62 58 58 52 56 56 56 54 53 53 53 52
63 64 65 66 66 66 65 66 64 64 63 63 61 60 58 58 55 55 56 56 52 53 57 56 52 53 64 64 63 61 61 63 62 59 55 55 55 54 55 53 53 53 53 53
63 63 62 64 65 66 67 66 64 65 63 61 61 62 59 57 56 54 53 51 53 52 55 55 56 59 58 59 59 57 57 57 57 57 55 55 54 54 53 53 53 52 53 53
63 55 63 65 65 64 66 64 65 64 64 63 62 62 62 59 57 55 51 53 52 53 53 55 57 58 58 56 55 55 55 51 48 52 51 51 51 52 52 53 53 54 53 53